Zurück zum Katalog

KUIPER-00209

AktivKommunikationLEO
NORAD 67776·PAYLOAD·🇺🇸 United States

Gestartet Feb 12, 2026 von Vandenberg Space Force Base

Loading…

Nächste Überflüge (nächste 24 Stunden)

TLE

AktuellSource: CelesTrak SupGP

Epoche: Sep 15, 2026, 05:31 UTC

1 67776C 26030N   26258.22991898  .00000672  00000+0  88058-4 0  2580
2 67776  51.8982  90.0520 0000871 113.1487 154.4576 14.79917501    12

Verfolge KUIPER-00209 in Echtzeit mit AllMySat

Download on the App Store